Location: Unspecified
(0.0000°N, 0.0000°E)
Time: 15:41:43
(UTC+00:00)

deb Delta 126 - Pass Details

Date: 18 February 2026
Orbit: 1458 x 1580 km, 101.9° (Epoch: 6 March)

Event Time Altitude Azimuth Distance (km) Brightness Sun altitude
Rises 01:55:54 0° 54° (NE) 4,758 ? -62.1°
Enters shadow 01:59:51 - 72° (ENE) 3,881 ? -61.2°
Exits shadow 02:03:11 14° 93° (E) 3,434 ? -60.5°
Maximum altitude 02:05:07 15° 108° (ESE) 3,357 ? -60.0°
Drops below altitude 10° 02:09:44 10° 140° (SE) 3,764 ? -59.0°
Sets 02:14:12 0° 160° (SSE) 4,733 ? -58.0°
